timestamp,surface_pressure_avg,surface_temp_avg,battery_voltage,lat,long
2018-04-15 00:00:00+00:00,336.348,2.6,12.73,47.84626,-54.09684
2018-04-15 00:10:00+00:00,334.7463,2.6,12.73,47.84626,-54.09684
2018-04-15 00:20:00+00:00,327.3963,2.61,12.81,47.84626,-54.09684
2018-04-15 00:30:00+00:00,315.618,2.6,12.73,47.84626,-54.09684
2018-04-15 00:40:00+00:00,316.6713,2.6,12.81,47.84626,-54.09684
2018-04-15 00:50:00+00:00,312.8696,2.6,12.81,47.84626,-54.09684
2018-04-15 01:00:00+00:00,298.723,2.6,12.73,47.84626,-54.09684
2018-04-15 01:10:00+00:00,293.898,2.6,12.65,47.84626,-54.09684
2018-04-15 01:20:00+00:00,294.973,2.6,12.73,47.84626,-54.09684
2018-04-15 01:30:00+00:00,288.508,2.6,12.73,47.84626,-54.09684
2018-04-15 01:40:00+00:00,279.2731,2.6,12.73,47.84626,-54.09684
2018-04-15 01:50:00+00:00,273.433,2.6,12.73,47.84626,-54.09684
2018-04-15 02:00:00+00:00,263.3714,2.6,12.73,47.84626,-54.09684
2018-04-15 02:10:00+00:00,252.7697,2.5,12.65,47.84626,-54.09684
2018-04-15 02:20:00+00:00,247.6931,2.5,12.73,47.84626,-54.09684
2018-04-15 02:30:00+00:00,240.2714,2.5,12.73,47.84626,-54.09684
2018-04-15 02:40:00+00:00,226.6198,2.47,12.73,47.84626,-54.09684
2018-04-15 02:50:00+00:00,215.6181,2.49,12.73,47.84626,-54.09684
2018-04-15 03:00:00+00:00,211.2998,2.59,12.65,47.84626,-54.09684
2018-04-15 03:10:00+00:00,208.4864,2.6,12.65,47.84626,-54.09684
2018-04-15 03:20:00+00:00,203.0598,2.6,12.73,47.84626,-54.09684
2018-04-15 03:30:00+00:00,199.9381,2.6,12.73,47.84626,-54.09684
2018-04-15 03:40:00+00:00,196.0198,2.5,12.73,47.84626,-54.09684
2018-04-15 03:50:00+00:00,186.0064,2.44,12.73,47.84626,-54.09684
2018-04-15 04:00:00+00:00,176.3248,2.58,12.65,47.84626,-54.09684
2018-04-15 04:10:00+00:00,173.4148,2.6,12.65,47.84626,-54.09684
2018-04-15 04:20:00+00:00,169.7298,2.59,12.73,47.84626,-54.09684
2018-04-15 04:30:00+00:00,165.4615,2.58,12.73,47.84626,-54.09684
2018-04-15 04:40:00+00:00,164.0615,2.53,12.73,47.84626,-54.09684
2018-04-15 04:50:00+00:00,164.8214,2.5,12.73,47.84626,-54.09684
2018-04-15 05:00:00+00:00,167.7298,2.5,12.65,47.84626,-54.09684
2018-04-15 05:10:00+00:00,168.6232,2.5,12.65,47.84626,-54.09684
2018-04-15 05:20:00+00:00,169.6382,2.5,12.73,47.84626,-54.09684
2018-04-15 05:30:00+00:00,171.4882,2.4,12.73,47.84626,-54.09684
2018-04-15 05:40:00+00:00,174.1714,2.4,12.73,47.84626,-54.09684
2018-04-15 05:50:00+00:00,176.0432,2.4,12.73,47.84626,-54.09684
2018-04-15 06:00:00+00:00,177.3315,2.3,12.65,47.84626,-54.09684
2018-04-15 06:10:00+00:00,180.3348,2.3,12.65,47.84626,-54.09684
2018-04-15 06:20:00+00:00,187.2314,2.3,12.73,47.84626,-54.09684
2018-04-15 06:30:00+00:00,186.7448,2.28,12.73,47.84626,-54.09684
2018-04-15 06:40:00+00:00,189.1098,2.2,12.73,47.84626,-54.09684
2018-04-15 06:50:00+00:00,201.3481,2.2,12.73,47.84626,-54.09684
2018-04-15 07:00:00+00:00,206.2664,2.0,12.65,47.84626,-54.09684
2018-04-15 07:10:00+00:00,207.8848,1.9,12.65,47.84626,-54.09684
2018-04-15 07:20:00+00:00,211.8231,1.7,12.73,47.84626,-54.09684
2018-04-15 07:30:00+00:00,220.5815,1.55,12.65,47.84626,-54.09684
2018-04-15 07:40:00+00:00,226.7164,1.6,12.73,47.84626,-54.09684
2018-04-15 07:50:00+00:00,235.2464,1.69,12.73,47.84626,-54.09684
2018-04-15 08:00:00+00:00,243.4198,1.7,12.65,47.84626,-54.09684
2018-04-15 08:10:00+00:00,245.8831,1.74,12.65,47.84626,-54.09684
2018-04-15 08:20:00+00:00,254.7747,1.7,12.65,47.84626,-54.09684
2018-04-15 08:30:00+00:00,267.4781,1.66,12.65,47.84626,-54.09684
2018-04-15 08:40:00+00:00,276.1863,1.61,12.73,47.84626,-54.09684
2018-04-15 08:50:00+00:00,283.2297,1.5,12.73,47.84626,-54.09684
2018-04-15 09:00:00+00:00,294.8431,1.5,12.65,47.84626,-54.09684
2018-04-15 09:10:00+00:00,301.023,1.49,12.65,47.84626,-54.09684
2018-04-15 09:20:00+00:00,309.6613,1.44,12.81,47.84626,-54.09684
2018-04-15 09:30:00+00:00,323.6213,1.4,12.89,47.84626,-54.09684
2018-04-15 09:40:00+00:00,339.1597,1.4,12.89,47.84626,-54.09684
2018-04-15 09:50:00+00:00,342.6096,1.4,12.81,47.84626,-54.09684
2018-04-15 10:00:00+00:00,343.2797,1.4,12.73,47.84626,-54.09684
2018-04-15 10:10:00+00:00,355.0396,1.4,12.73,47.84626,-54.09684
2018-04-15 10:20:00+00:00,366.833,1.4,12.81,47.84626,-54.09684
2018-04-15 10:30:00+00:00,361.6512,1.4,12.89,47.84626,-54.09684
2018-04-15 10:40:00+00:00,355.8563,1.39,12.97,47.84626,-54.09684
2018-04-15 10:50:00+00:00,361.3796,1.4,12.97,47.84626,-54.09684
2018-04-15 11:00:00+00:00,359.7596,1.4,13.13,47.84626,-54.09684
2018-04-15 11:10:00+00:00,348.8446,1.4,13.53,47.84626,-54.09684
2018-04-15 11:20:00+00:00,350.9562,1.39,13.92,47.84626,-54.09684
2018-04-15 11:30:00+00:00,357.403,1.4,13.44,47.84626,-54.09684
2018-04-15 11:40:00+00:00,350.1796,1.36,15.04,47.84626,-54.09684
2018-04-15 11:50:00+00:00,346.8363,1.3,15.27,47.84626,-54.09684
2018-04-15 12:00:00+00:00,352.2913,1.38,14.32,47.84626,-54.09684
2018-04-15 12:10:00+00:00,349.663,1.35,14.64,47.84626,-54.09684
2018-04-15 12:20:00+00:00,338.4696,1.31,14.56,47.84626,-54.09684
2018-04-15 12:30:00+00:00,333.6447,1.35,14.4,47.84626,-54.09684
2018-04-15 12:40:00+00:00,339.7213,1.38,14.88,47.84626,-54.09684
2018-04-15 12:50:00+00:00,339.4329,1.38,14.88,47.84626,-54.09684
2018-04-15 13:00:00+00:00,336.9496,1.39,14.32,47.84626,-54.09684
2018-04-15 13:10:00+00:00,338.4263,1.38,14.24,47.84626,-54.09684
2018-04-15 13:20:00+00:00,336.5295,1.4,14.16,47.84626,-54.09684
2018-04-15 13:30:00+00:00,331.7629,1.4,14.48,47.84626,-54.09684
2018-04-15 13:40:00+00:00,327.9464,1.4,14.08,47.84626,-54.09684
2018-04-15 13:50:00+00:00,324.3163,1.4,14.72,47.84626,-54.09684
2018-04-15 14:00:00+00:00,314.8813,1.4,14.16,47.84626,-54.09684
2018-04-15 14:10:00+00:00,305.7463,1.4,14.16,47.84626,-54.09684
2018-04-15 14:20:00+00:00,296.3547,1.38,14.8,47.84626,-54.09684
2018-04-15 14:30:00+00:00,289.9346,1.38,14.64,47.84626,-54.09684
2018-04-15 14:40:00+00:00,282.2814,1.38,14.56,47.84626,-54.09684
2018-04-15 14:50:00+00:00,275.1747,1.44,14.24,47.84626,-54.09684
2018-04-15 15:00:00+00:00,263.0731,1.46,14.24,47.84626,-54.09684
2018-04-15 15:10:00+00:00,254.2097,1.4,14.32,47.84626,-54.09684
2018-04-15 15:20:00+00:00,250.6348,1.4,14.16,47.84626,-54.09684
2018-04-15 15:30:00+00:00,246.4764,1.45,14.0,47.84626,-54.09684
2018-04-15 15:40:00+00:00,235.9364,1.64,14.32,47.84626,-54.09684
2018-04-15 15:50:00+00:00,228.9531,1.64,14.16,47.84626,-54.09684
2018-04-15 16:00:00+00:00,225.1314,1.59,14.08,47.84626,-54.09684
2018-04-15 16:10:00+00:00,219.1731,1.7,14.0,47.84626,-54.09684
2018-04-15 16:20:00+00:00,213.1848,1.73,14.16,47.84626,-54.09684
2018-04-15 16:30:00+00:00,212.9365,1.79,14.16,47.84626,-54.09684
2018-04-15 16:40:00+00:00,211.2015,1.74,13.92,47.84626,-54.09684
2018-04-15 16:50:00+00:00,205.5664,1.9,14.0,47.84626,-54.09684
2018-04-15 17:00:00+00:00,205.4964,1.9,13.84,47.84626,-54.09684
2018-04-15 17:10:00+00:00,206.1514,1.9,13.53,47.84626,-54.09684
2018-04-15 17:20:00+00:00,207.0547,1.91,13.53,47.84626,-54.09684
2018-04-15 17:30:00+00:00,205.4631,1.9,13.44,47.84626,-54.09684
2018-04-15 17:40:00+00:00,206.6448,1.9,13.37,47.84626,-54.09684
2018-04-15 17:50:00+00:00,213.8431,1.8,13.37,47.84626,-54.09684
2018-04-15 18:00:00+00:00,216.1581,1.86,13.29,47.84626,-54.09684
2018-04-15 18:10:00+00:00,215.6765,1.9,13.21,47.84626,-54.09684
2018-04-15 18:20:00+00:00,220.7714,1.9,13.37,47.84626,-54.09684
2018-04-15 18:30:00+00:00,228.8864,1.8,13.37,47.84626,-54.09684
2018-04-15 18:40:00+00:00,231.2948,1.85,13.29,47.84626,-54.09684
2018-04-15 18:50:00+00:00,237.6231,1.8,13.29,47.84626,-54.09684
2018-04-15 19:00:00+00:00,244.6031,1.8,13.29,47.84626,-54.09684
2018-04-15 19:10:00+00:00,247.5331,1.8,13.13,47.84626,-54.09684
2018-04-15 19:20:00+00:00,247.7831,1.83,13.21,47.84626,-54.09684
2018-04-15 19:30:00+00:00,253.1947,1.8,13.21,47.84626,-54.09684
2018-04-15 19:40:00+00:00,262.8781,1.8,13.21,47.84626,-54.09684
2018-04-15 19:50:00+00:00,267.8681,1.81,13.13,47.84626,-54.09684
2018-04-15 20:00:00+00:00,268.4831,1.9,13.05,47.84626,-54.09684
2018-04-15 20:10:00+00:00,273.1147,1.8,13.05,47.84626,-54.09684
2018-04-15 20:20:00+00:00,278.2513,1.8,13.05,47.84626,-54.09684
2018-04-15 20:30:00+00:00,281.4531,1.8,13.05,47.84626,-54.09684
2018-04-15 20:40:00+00:00,288.423,1.8,13.13,47.84626,-54.09684
2018-04-15 20:50:00+00:00,299.743,1.79,13.13,47.84626,-54.09684
2018-04-15 21:00:00+00:00,306.558,1.8,13.05,47.84626,-54.09684
2018-04-15 21:10:00+00:00,313.098,1.8,12.97,47.84626,-54.09684
2018-04-15 21:20:00+00:00,327.7813,1.77,13.05,47.84626,-54.09684
2018-04-15 21:30:00+00:00,337.1796,1.8,13.05,47.84626,-54.09684
2018-04-15 21:40:00+00:00,340.4147,1.8,13.05,47.84626,-54.09684
2018-04-15 21:50:00+00:00,346.5829,1.78,13.05,47.84626,-54.09684
2018-04-15 22:00:00+00:00,356.4296,1.76,12.97,47.84626,-54.09684
2018-04-15 22:10:00+00:00,358.3046,1.74,12.97,47.84626,-54.09684
2018-04-15 22:20:00+00:00,362.548,1.74,13.05,47.84626,-54.09684
2018-04-15 22:30:00+00:00,371.6312,1.7,12.97,47.84626,-54.09684
2018-04-15 22:40:00+00:00,376.7629,1.7,13.05,47.84626,-54.09684
2018-04-15 22:50:00+00:00,378.0646,1.7,13.05,47.84626,-54.09684
2018-04-15 23:00:00+00:00,380.4496,1.7,12.97,47.84626,-54.09684
2018-04-15 23:10:00+00:00,383.5579,1.7,12.89,47.84626,-54.09684
2018-04-15 23:20:00+00:00,384.2012,1.7,12.97,47.84626,-54.09684
2018-04-15 23:30:00+00:00,380.7479,1.7,12.97,47.84626,-54.09684
2018-04-15 23:40:00+00:00,377.6245,1.7,12.97,47.84626,-54.09684
2018-04-15 23:50:00+00:00,378.9579,1.7,12.97,47.84626,-54.09684
